Location: Bazincourt
(49.5016°N, 1.8100°E)
Time: 23:07:54
(UTC+00:00)

Daily predictions for brighter satellites

Satellite Brightness Start Highest point End
(mag) Time Altitude Azimuth Time Altitude Azimuth Time Altitude Azimuth
Cosmos 2227 Rocket 2.4 16:23:45 10° NNW 16:29:17 52° NE 16:34:47 10° SE
Meteor 1-28 Rocket 3.6 16:27:01 10° NNE 16:30:07 34° E 16:33:11 10° SSE
Cosmos 2369 Rocket 4.2 16:28:11 10° W 16:32:10 19° NW 16:36:11 10° N
CBERS-1 4.0 16:27:38 10° SSE 16:32:43 68° ENE 16:37:48 10° N
CENTAUR R/B 3.5 16:34:55 10° W 16:40:38 40° NNW 16:47:45 10° NE
Cosmos 1697 Rocket 3.1 16:36:06 10° S 16:41:25 46° ESE 16:46:46 10° NE
Cosmos 2360 4.3 16:37:14 10° SSW 16:42:58 89° WNW 16:48:45 10° NNE
Cosmos 1626 Rocket 4.1 16:38:46 10° NNW 16:43:03 61° W 16:47:16 10° S
CZ-2D R/B 3.8 16:41:58 10° SE 16:44:34 24° ENE 16:47:12 10° NNE
Cosmos 2266 Rocket 3.9 16:42:44 10° N 16:48:53 68° ENE 16:54:54 10° SSE
Cosmos 1656 4.2 16:45:13 10° SW 16:50:48 62° WNW 16:56:29 10° NNE
Cosmos 2228 4.3 16:47:48 10° SW 16:51:48 39° WNW 16:55:49 10° N
Cosmos 1606 Rocket 4.0 16:48:34 10° SSE 16:52:42 42° E 16:56:54 10° NNE
Cosmos 1503 Rocket 4.0 16:49:43 10° SSW 16:54:56 79° ESE 17:00:09 10° NNE
Lacrosse 5 rocket 2.4 16:53:08 10° WNW 16:56:19 25° N 16:58:50 13° NE
UNK 3.9 16:54:34 10° NNE 16:59:04 52° E 17:03:29 10° S
CZ-4C R/B 3.4 16:52:13 10° NW 16:59:09 70° SW 17:07:45 10° SSE
Cosmos 1484 Rocket 3.3 16:56:21 10° S 16:59:48 56° W 17:03:15 10° NNW
Thor Agena Rocket 3.5 16:55:49 10° SSE 17:01:01 85° ENE 17:06:11 10° NNW
Cosmos 1743 3.4 16:58:11 10° NNW 17:01:20 47° W 17:04:26 10° S
Cosmos 1544 Rocket 4.3 16:57:48 10° SSW 17:02:07 55° WNW 17:06:30 10° N
IRS-P3 4.4 16:58:44 10° SE 17:03:46 45° ENE 17:08:48 10° N
NOSS 2-3 (D) 3.8 17:01:03 10° SSW 17:04:30 39° SE 17:07:02 17° ENE
NOSS 2-3 (E) 3.7 17:01:40 10° SSW 17:05:08 42° SE 17:07:43 17° ENE
Cosmos 1354 Rocket 4.0 17:00:44 10° SSW 17:05:57 70° ESE 17:11:12 10° NNE
IGS 5A 3.9 17:03:21 10° S 17:07:16 62° W 17:11:14 10° NNW
NOSS 2-2 (D) 4.4 17:05:06 10° W 17:07:45 24° NW 17:10:10 11° NNE
Cosmos 1777 Rocket 4.2 17:02:57 10° SSW 17:08:12 72° WNW 17:13:27 10° NNE
Cosmos 2151 3.5 17:05:19 10° NNW 17:09:27 61° W 17:13:32 10° S
Cosmos-2242 4.2 17:06:27 10° SE 17:09:41 21° E 17:11:23 17° NE
USA 238 DEB 4.0 17:04:14 10° S 17:09:52 41° ESE 17:14:48 15° NE
USA 238 4.0 17:04:21 10° S 17:10:00 41° ESE 17:14:54 15° NE
MOS 1 Rocket 3.6 17:05:48 10° SE 17:10:38 53° ENE 17:15:46 10° N
Cosmos 1898 Rocket 4.5 17:09:38 10° SSE 17:13:52 26° E 17:16:31 17° ENE
Gbstr 26 Del rocket 2.8 17:09:55 10° WSW 17:14:02 66° SSE 17:16:29 21° ENE
Cosmos 1726 Rocket 3.8 17:10:43 10° S 17:15:13 53° E 17:19:40 10° NNE
ERS-1 4.4 17:11:49 10° SSE 17:16:44 63° ENE 17:21:39 10° N
USA 215 3.8 17:12:07 15° ENE 17:17:18 47° N 17:23:31 10° WNW
IRIDIUM 104 4.5 17:12:10 10° N 17:17:25 78° W 17:22:37 10° S
Cosmos 2082 4.1 17:12:21 10° NNW 17:17:47 42° NE 17:23:11 10° ESE
AQUARIUS 4.1 17:13:54 10° SSE 17:18:13 59° ENE 17:22:34 10° N
SMAP 3.2 17:14:53 10° SSE 17:19:32 80° WSW 17:24:14 10° NNW
Cosmos 1805 3.8 17:17:35 10° NNE 17:20:27 25° ENE 17:23:18 10° SE
Cosmos 2297 Rocket 4.1 17:16:23 10° NW 17:21:26 34° WSW 17:26:28 10° S
GEOS 3 Rocket 3.8 17:19:09 16° NE 17:23:27 63° SE 17:28:46 10° SSW
Landsat 7 3.7 17:19:01 10° SSE 17:23:39 88° E 17:28:22 10° NNW
YAOGAN 1 3.3 17:22:49 10° SE 17:26:31 30° ENE 17:30:14 10° N
Cosmos 1937 Rocket 4.4 17:25:09 10° SSE 17:29:25 26° E 17:30:51 23° ENE
Okean 1-7 Rocket 4.3 17:26:04 10° NNW 17:30:22 54° W 17:34:37 10° S
SL-16 R/B 4.1 17:28:57 10° ESE 17:29:26 11° ESE 17:29:26 11° ESE
Cosmos 990 Rocket 4.0 17:28:13 10° SSW 17:33:21 84° WNW 17:38:14 12° NNE
Cosmos 1461 3.9 17:30:04 10° WSW 17:33:43 36° NW 17:36:23 16° NNE
CZ-2D R/B 3.8 17:30:39 10° SE 17:34:33 40° ENE 17:38:24 10° N
SL-16 R/B 3.3 17:29:05 10° N 17:35:05 52° WNW 17:41:03 10° SW
SKYMED 2 4.0 17:35:14 24° NE 17:37:18 38° E 17:41:21 10° SSE
COSMOS 2455 4.0 17:33:33 10° SSE 17:37:58 22° ESE 17:38:36 21° E
Okean 1 4.0 17:35:41 10° SSE 17:38:21 29° ESE 17:38:21 29° ESE
Cosmos 1844 Rocket 3.5 17:39:46 10° NNW 17:44:44 30° NE 17:45:49 28° ENE
SJ-6F 4.3 17:40:55 10° SSE 17:44:54 87° WSW 17:48:58 10° NNW
Cosmos 2219 3.1 17:39:18 10° NNW 17:45:03 74° ENE 17:50:48 10° SE
Cosmos 1980 Rocket 2.2 17:40:07 10° SSW 17:45:42 66° ESE 17:49:21 22° NE
Cosmos 1953 Rocket 3.6 17:42:54 10° NNW 17:47:22 83° W 17:51:49 10° S
Aureole 1 Rocket 3.4 17:43:06 10° S 17:47:41 67° ESE 17:51:47 19° NNE
Meteor 1-26 Rocket 4.2 17:43:48 10° SSE 17:48:59 50° E 17:52:48 18° NNE
PSLV R/B 3.7 17:49:59 38° E 17:50:38 41° ENE 17:54:29 10° N
ARIANE 5 R/B 3.2 17:47:43 10° S 17:52:41 56° W 17:57:46 10° NNW
Cosmos 2263 Rocket 2.5 17:47:33 10° NNW 17:53:13 71° WSW 17:58:52 10° SSE
SL-19 R/B 4.3 17:48:19 10° SE 17:53:36 53° ENE 17:59:12 10° N
BREEZE-M DEB (TANK) 3.6 17:54:01 10° SW 17:57:14 26° SSE 17:57:14 26° SSE
Cosmos 1680 Rocket 3.7 17:53:34 10° NNW 17:58:37 46° ENE 18:00:24 33° ESE
COSMO-SKYMED 1 2.9 17:59:08 39° ESE 17:59:08 39° ESE 18:02:31 10° S
BREEZE-M DEB (TANK) 3.9 17:55:45 10° W 17:59:19 78° SSW 18:06:53 19° ESE
NOSS 3-2 (C) 4.0 17:54:22 10° WSW 17:59:27 46° NW 18:03:20 21° NNE
NOAA 15 4.5 17:55:40 10° SSE 18:00:55 71° ENE 18:06:12 10° N
Cosmos 1076 Rocket 4.3 17:57:45 10° NNW 18:01:58 53° W 18:06:10 10° S
Meteor 2-10 4.1 17:56:48 10° NNW 18:02:14 84° W 18:07:49 10° S
NOAA 6 4.1 17:58:00 10° SE 18:02:55 50° ENE 18:07:50 10° N
Cosmos 2369 3.8 17:57:52 10° S 18:03:24 53° ESE 18:05:20 37° ENE
USA 81 4.1 18:06:06 10° N 18:11:23 77° W 18:16:38 10° S
Cosmos 44 Rocket 3.7 18:06:51 10° NNW 18:11:47 44° NE 18:11:53 44° NE
Cosmos 2227 Rocket 4.1 18:08:12 10° NW 18:13:04 31° WSW 18:17:56 10° SSW
SPOT 1/Viking Rocket 3.8 18:11:33 10° S 18:16:44 69° WSW 18:21:57 10° NNW
Cosmos 2058 Rocket 3.4 18:19:32 10° SSW 18:24:00 66° WNW 18:26:26 26° N
Cosmos 1697 Rocket 3.9 18:20:20 10° WSW 18:25:30 36° NW 18:29:16 17° N
OceanSat 1 rocket 4.4 18:21:37 10° SSE 18:26:21 84° ENE 18:31:05 10° NNW
Cosmos 2333 Rocket 4.1 18:28:28 10° SSE 18:29:34 15° SSE 18:29:34 15° SSE
CENTAUR R/B 4.1 18:27:27 10° WNW 18:33:18 28° N 18:35:36 25° NNE
Lacrosse 5 rocket 3.0 18:30:46 10° NW 18:32:26 21° NNW 18:32:26 21° NNW
Cosmos 2278 Rocket 4.5 18:32:39 10° N 18:32:43 10° N 18:32:43 10° N
Meteor 2-11 Rocket 4.3 18:28:08 10° N 18:34:21 86° E 18:40:29 10° S
NOSS 2-3 (C) 4.3 18:31:55 10° WSW 18:34:52 38° NW 18:34:52 38° NW
Meteor 1-14 Rocket 4.1 18:32:45 10° N 18:38:33 72° ENE 18:39:10 65° ESE
Resurs 1-3 4.3 18:39:28 10° S 18:43:39 51° W 18:47:52 10° NNW
Cosmos-2242 4.1 18:42:25 10° SW 18:46:26 41° WNW 18:47:46 32° NNW
Cosmos 1898 Rocket 4.2 18:50:34 10° SW 18:55:34 50° WNW 18:56:45 42° NNW
Cosmos 1844 4.0 18:50:16 10° NNW 18:54:37 54° N 18:54:37 54° N
USA 215 3.4 18:59:28 53° NNE 18:59:43 54° NNE 19:06:03 10° WNW
Cosmos 2112 Rocket 4.2 18:55:09 10° NNW 18:59:48 66° WNW 18:59:48 66° WNW
USA 238 DEB 4.0 18:54:30 10° WSW 19:00:36 55° NW 19:02:15 45° N
USA 238 4.0 18:54:35 10° WSW 19:00:43 56° NW 19:02:21 45° N
Cosmos 1553 Rocket 4.4 18:54:47 10° SSW 19:00:53 60° WNW 19:07:08 10° N
YAOGAN 1 4.2 18:58:29 10° SSW 19:02:19 32° W 19:06:10 10° NNW
BREEZE-M DEB (TANK) 4.0 19:01:24 10° SW 19:06:16 43° SSW 19:06:16 43° SSW
Cosmos 1937 Rocket 4.2 19:05:59 10° SW 19:10:57 50° WNW 19:10:57 50° WNW
Meteor 2-6 Rocket 4.5 19:05:38 10° SSW 19:11:18 68° WNW 19:11:38 66° NW
SL-16 R/B 3.5 19:08:38 10° SSW 19:11:20 29° SSW 19:11:20 29° SSW
Cosmos 1745 Rocket 4.2 19:10:14 10° NNW 19:16:21 67° W 19:22:24 10° S
COSMOS 2455 3.3 19:17:10 10° SW 19:21:46 54° SW 19:21:46 54° SW
Cosmos 1844 Rocket 3.6 19:23:24 10° NW 19:27:31 45° WNW 19:27:31 45° WNW
Cosmos 1980 Rocket 3.8 19:25:21 10° WSW 19:30:10 28° NW 19:31:07 27° NNW
CENTAUR R/B 4.4 20:19:01 10° NW 20:22:41 28° NNW 20:22:41 28° NNW
